User: anonymous   Login
Location: G�kdere
(37.0328°N, 30.9000°E)
Time: 02:01:17
(UTC+00:00)
Language:

COSMOS 2428 - Orbit

View from above orbital plane
View from above orbital plane
View from above satellite
View from above satellite

Ground track
Ground track

The orbit data is extracted from the following two-line orbital elements,

1 31792U 07029A   21127.82126936  .00000234  00000-0  15354-3 0  9990
2 31792  70.8944 311.3644 0009922 284.6533  75.3487 14.12259636714668
Epoch (UTC): 07 May 2021 19:42:37
Eccentricity: 0.0009922
inclination: 70.8944°
perigee height: 844 km
apogee height: 859 km
right ascension of ascending node: 311.3644°
argument of perigee: 284.6533°
revolutions per day: 14.12259636
mean anomaly at epoch: 75.3487°
orbit number at epoch: 71466

The dashed part of the orbit path shows where the satellite is in the earth's shadow,  

DLR